Details From EGTE - Exeter
To EGJJ - Jersey
Flight Number -
Tags generated
Created
Modified
Stats Distance 103 nm / 191 km
Max Altitude 1,000 ft / 305 m
Waypoints 3
Social Downloads 0
Likes 0
Share VATSIM

Download

Looking for another format? Having issues loading an existing format? Contact us
Advertisement - Login to hide

Notes

Basic altitude profile: - Ascent Rate: 1000ft/min - Ascent Speed: 160kts - Cruise Altitude: 1000ft - Cruise Speed: 240kts - Descent Rate: 1500ft/min - Descent Speed: 220kts Options: - Use NATs: yes - Use PACOTS: no - Use low airways: yes - Use high airways: no

Route

EGTE NOTRO EGJJ

ID Type Via Altitude (ft/m) Position (lat/lon) Dist (leg/tot) Name
O EGTE APT - 0 / 0 50.73430 / -3.41377 - / 0 nm Exeter
NOTRO FIX - 1,000 / 305 50.43670 / -3.17250 20 / 20 nm
O EGJJ APT - 0 / 0 49.20800 / -2.19523 82 / 103 nm Jersey

Altitude Profile

Advertisement - Login to hide

EGTE

Details ICAO EGTE (EXT)
Name Exeter
Region United Kingdom
Timezone Europe/London (UTC+0.0)
Stats Elevation 102 ft / 31 m (AMSL)
Location 50.734300° -3.413770°
Runways 1
Magnetic Variation 1.351° W

METAR

EGTE 170050Z 31013KT 9999 -SHRA SCT020 BKN035 05/04 Q1005

Decode

TAF

Not found

Departure Runways

ID Width Length Bearing (true/mag) Surface Threshold Overrun Markings Lighting
08 148 ft / 45 m 6,839 ft / 2,085 m 76.13° / 77.48° ASPHALT 0 ft / 0 m 0 ft / 0 m UK-PREC-APP EDGE THRESHOLD MALS REIL-OMNI
26 148 ft / 45 m 6,839 ft / 2,085 m 256.15° / 257.50° ASPHALT 0 ft / 0 m 0 ft / 0 m UK-PREC-APP EDGE THRESHOLD CALVERT REIL-OMNI

EGJJ

Details ICAO EGJJ (JER)
Name Jersey
Region United Kingdom
Timezone Europe/Jersey (UTC+0.0)
Stats Elevation 276 ft / 84 m (AMSL)
Location 49.208000° -2.195230°
Runways 1
Magnetic Variation 0.748° W

METAR

EGJJ 170050Z AUTO 28018KT 9999 NCD 08/04 Q1006 RESHRA

Decode

TAF

Not found

Destination Runways

ID Width Length Bearing (true/mag) Surface Threshold Overrun Markings Lighting
08 151 ft / 46 m 5,600 ft / 1,707 m 82.74° / 83.49° ASPHALT 190 ft / 58 m 0 ft / 0 m UK-PREC-APP CENTERLINE EDGE THRESHOLD CALVERT TDZ REIL-OMNI
26 151 ft / 46 m 5,600 ft / 1,707 m 262.76° / 263.51° ASPHALT 318 ft / 97 m 0 ft / 0 m UK-PREC-APP CENTERLINE EDGE THRESHOLD CALVERT-ILS TDZ REIL-OMNI

Approach Navaids

Runway Type Ident Frequency Range Bearing (true/mag) Slope Elevation
08 DME IJJ 110.90 MHz 18 nm / 33 km - - 287 ft / 87 m (AMSL)
08 LOC-ILS IJJ 110.90 MHz 18 nm / 33 km 82.75° / 83.50 ° - 276 ft / 84 m (AMSL)
08 GS IJJ 110.90 MHz 18 nm / 33 km 82.75° / 83.50 ° 3.00° 276 ft / 84 m (AMSL)
26 DME IDD 110.30 MHz 18 nm / 33 km - - 289 ft / 88 m (AMSL)
26 GS IDD 110.30 MHz 18 nm / 33 km 263.75° / 264.50 ° 3.00° 276 ft / 84 m (AMSL)
26 LOC-ILS IDD 110.30 MHz 18 nm / 33 km 262.70° / 263.45 ° - 276 ft / 84 m (AMSL)

Popular Alternatives